Погода в Рязани

Погода в Рязани : погода сейчас, прогноз погоды и архив. Всё, что Вы хотите узнать о погоде в Рязани!

Хотите узнать прогноз погоды в Рязани? Тогда Вам сюда: Погода в Рязани

Поиск расширенной информации на нашем сайте:

Другие новости

Новости СМИ2

Главная страница сайта

Новости сайта

03.07.2017

Напоминаем, что на нашем специализированном сайте Метеоцентр.Азия вы можете получить высокодетализированные автоматические прогнозы погоды по пунктам России, СНГ и мира в авиационном формате (включающие направление и скорость ветра, видимость, явления погоды, количество и форму облачности, нижнюю и верхнюю границу облачности).

Рекомендуем: Информация medicine на нашем сайте.

Погода в Рязани - сегодня

Время (UTC), дата Ветер
(°,м/с) 
Видим.   Явления Облачность Т
(°С)
Тd
(°С)
f(%) Тe
(°С)
Pmin
(гПа)
dP
(гПа)
Po
(мм)
O2
(г/м3)
Тmin Tmax R s Состояние
почвы
21 14.08.18 тихо ()   10 км    ясно 
+12.2 +10.9 92 +15  1017  0.7  749  287           
00 15.08.18 140 (ЮВ) 10 км    3/0 средняя 
[Ac trans]
+13.8 +11.9 88 +19  1016.6  -0.2  748  285           
03 15.08.18 150 (ЮВ) 20000 м    6/0 средняя, верхняя 
[Ac trans|Ci fib]
+16.4 +11.4 72 +20  1016  -0.4  748  282  +12.2        сухая 
06 15.08.18 180 (Ю) 20000 м    4/0 средняя 
[Ac trans]
+23.4 +10.3 44 +25  1014.3  -1.3  747  275           
18 15.08.18 250 (З) 20000 м    8/8 600 м 
[Sc]
+24.3 +12.2 47 +29  1011.4  0.7  745  273           
21 15.08.18 210 (ЮЗ) 10 км  {ливн. осадки}  ясно 
+17.9 +16.6 92 +31  1012.2  0.4  745  278           
00 16.08.18 тихо ()   4000 м  слаб. ливневой дождь  10/10 600 м кучево-дожд. 
[Cb cap]
+17.8 +17.4 98 +31  1012.9  0.8  746  278           
03 16.08.18 тихо ()   10 км    3/0 верхняя 
[Ci fib]
+16.8 +16.5 98 +28  1014  0.9  747  280  +16.4      влажная 
06 16.08.18 270 (З) 20000 м    9/4 300 м средняя 
[Sc diur, vesp|Ac trans]
+20.8 +18.7 88 +37  1014.7  1.1  747  275           
09 16.08.18 250 (З) 10 км  слаб. ливневой дождь  10/8 300 м кучево-дожд., средняя 
[Cb cap|Ac trans]
+20.9 +18.9 88 +37  1015.1  0.3  748  275           
12 16.08.18 310 (СЗ) 20000 м  {ливн. осадки}  8/5 300 м средняя 
[Sc diur, vesp|Ac trans]
+25.2 +14.6 52 +33  1015.5  0.6  748  273           
18 16.08.18 360 (С) 20000 м    6/6 600 м 
[Sc diur, vesp]
+18.4 +15.2 82 +29  1018.7  1.6  750  280           
21 16.08.18 020 (С) 10 км    3/0 средняя 
[Ac trans]
+16 +15.2 95 +26  1019.6  0.8  751  283           
00 17.08.18 020 (С) 10 км    3/0 верхняя 
[Ci fib]
+14 +13.5 97 +21  1021.2  1.4  752  285           
03 17.08.18 040 (СВ) 20000 м    ясно 
+12.9 +12.6 98 +19  1022.3  1.1  753  287  +12.8        влажная 
06 17.08.18 050 (СВ) 20000 м    ясно 
+18.3 +13.1 72 +24  1023.2  1.2  753  282           
09 17.08.18 040 (СВ) 20000 м    5/5 600 м 
[Cu med, cong]
+20.8 +10.1 50 +22  1022.8  0.2  753  280           
12 17.08.18 360 (С) 20000 м    5/5 600 м 
[Cu hum]
+23.1 +7.9 38 +23  1022.2  -0.4  753  278           
15 17.08.18 040 (СВ) 20000 м    4/4 600 м 
[Cu hum]
+22.4 +7.3 38 +22  1021.9  -0.4  753  279           
18 17.08.18 050 (СВ) 20000 м    3/0 средняя 
[Ac trans]
+16.2 +9.8 66 +19  1022.8  0.6  753  285           
21 17.08.18 060 (СВ) 20000 м    ясно 
+14.5 +9.3 71 +16  1023.5  0.5  754  287           
00 18.08.18 тихо ()   20000 м    ясно 
+11.2 +9.9 92 +12  1024.1  0.4  754  290           
03 18.08.18 тихо ()   10 км    ясно 
+9.5 +9.2 98 +10  1025  0.8  754  292  +9.2        сухая 
06 18.08.18 050 (СВ) 20000 м    ясно 
+19.9 +10.4 54 +23  1024.7  0.3  755  282           
09 18.08.18 140 (ЮВ) 20000 м    3/3 600 м 
[Cu hum]
+23.2 +6.7 35 +23  1023.8  -0.7  754  279           
Время (UTC), дата Ветер
(°,м/с) 
Видим.   Явления Облачность Т
(°С)
Тd
(°С)
f(%) Тe
(°С)
Pmin
(гПа)
dP
(гПа)
Po
(мм)
O2
(г/м3)
Тmin Tmax R s Состояние
почвы

Для получения пояснительной информации подведите курсор к названию столбца.

ПОГОДА в Рязани - архив

Всё, что Вы хотите узнать о погоде в Рязани - удобно и подробно!

Выберите нужную дату (начиная с 1 января 2015* года) и нажмите кнопку "Найти".
Будут отображены архивные сводки погоды по пункту Рязань, начиная с указанной даты.


Отображать данные в формате CSV (для использования в таблицах Excel)


Внимание! Наш архив погоды предназначен исключительно для личного некоммерческого использования в познавательных целях. Если Вам необходимы официальные справки о состоянии погоды (для производственных, юридических, коммерческих и т.п. целей), обращайтесь в органы Росгидромета.

*Примечание: данная дата относится к архиву по метеостанциям СССР (Россия, СНГ, Балтия).
Архив по метеостанциям Зарубежной Европы и Азии (кроме Китая) хранится 10 дней, по другим регионам земного шара (Китай, Африка, Америка, Австралия, Океания) - 1 день.

Рязань - район местоположения метеостанции


Название, широта, долгота, высота метеостанции:
Рязань 54.6°ш. 39.7°д. 158 м над ур. моря [Российская Федерация]

Дополнительная информация

В oтличие oт бoльшинства пoгoдных сайтoв мы публикуем пoдрoбную метеoинфoрмацию в детальнoм прoфессиoнальнoм фoрмате.

Характеристики температуры и влажнoсти вoздуха измеряются на высoте 2 м в тени вдали oт зданий и деревьев.
Скoрoсть ветра измеряется на высoте 10 м (на урoвне рoста челoвека скoрoсть ветра ниже в 1.5-2 раза). Если метеoстанция нахoдится в гoрoде или в лесу, тo скoрoсть ветра занижена на 2-4 м/с пo сравнению с oткрытым местoм. Скoрoсть ветра над акватoриями крупных рек и oзёр, а также на вершинах хoлмoв на 2-5 м/с выше, чем в oбычных услoвиях.
Атмoсфернoе давление в разных тoчках местнoсти мoжет значительнo oтличаться oт давления на метеoстанции, в зависимoсти oт услoвий рельефа (при пoдъёме на 10 м давление пoнижается примернo на 1 мм рт.ст.).